Theta_e
289 286 286 286 288 288 288 289 291 288 287 284 284 283 283 284 285 285 286 288 288 288 286 287 285 284 286 286 288 289 288 287 287 286 285 285 285 285 285 285 285 285 285 286 286 286 286 286 287 287 287 287 288 288 289 289 289 289 290 291 290 292 294 295 296 296 297 298 299 298 298 298 299 298 298 298 298 297 297 298 299 300 301 302 303 304
291 286 286 289 289 289 290 288 288 286 286 287 286 284 284 282 284 286 288 288 287 288 284 283 284 287 288 286 287 287 287 285 285 285 285 285 285 285 284 284 284 285 286 286 285 286 285 286 286 286 286 287 286 286 287 287 288 289 289 289 290 291 292 293 294 295 295 295 295 296 296 295 295 295 294 294 295 295 295 294 295 296 296 296 297 299
286 286 289 291 289 287 287 287 285 286 286 285 285 284 283 285 283 286 287 285 287 287 286 282 286 288 286 286 287 286 285 285 285 285 285 284 284 284 284 284 284 284 284 284 284 284 285 285 285 285 285 285 285 285 286 286 287 287 288 288 289 289 290 291 293 294 294 294 295 295 293 294 292 294 293 292 293 293 292 292 292 293 293 293 293 294
286 285 290 290 287 289 287 284 285 285 285 284 283 283 284 283 285 284 285 285 287 286 285 284 284 288 284 285 285 286 285 285 285 285 284 284 284 283 283 283 283 283 283 283 283 283 283 284 284 284 284 284 284 285 285 285 286 286 287 287 288 288 289 290 291 292 292 294 293 294 293 293 292 291 292 291 291 291 290 289 290 290 290 291 291 292
290 289 289 289 288 289 288 285 285 284 284 283 284 284 284 284 284 287 286 285 283 286 283 285 284 284 283 284 283 285 286 285 285 285 284 284 284 284 284 284 284 282 282 282 283 283 283 283 283 283 283 284 284 284 283 284 284 285 285 286 287 287 288 288 290 290 291 292 292 292 292 291 290 290 289 289 288 288 289 288 288 288 289 289 289 289
287 291 288 287 285 287 287 285 285 286 283 281 282 287 287 287 287 283 283 286 280 283 282 285 279 277 279 281 283 284 284 283 284 282 282 283 283 283 283 283 283 284 283 282 282 282 282 282 282 283 283 283 283 283 283 283 284 284 285 285 286 286 287 287 288 289 290 289 289 289 288 287 286 285 285 285 285 286 286 286 287 287 287 287 287 288
289 289 290 291 286 285 286 285 283 288 282 284 286 286 288 286 285 283 284 284 280 278 284 282 281 274 279 281 283 283 282 282 283 282 283 282 283 282 283 283 283 282 282 282 282 282 282 282 282 282 282 282 282 282 282 283 283 283 284 284 285 285 286 287 287 288 289 288 287 287 286 286 285 284 284 285 285 285 285 286 285 285 286 286 286 286
288 287 287 287 286 286 284 286 284 288 285 283 284 283 285 284 284 283 283 284 280 280 282 281 283 277 275 283 284 283 282 281 282 282 282 282 282 282 283 283 282 282 282 281 281 281 281 281 281 281 281 281 282 281 282 283 283 283 283 283 283 284 285 285 286 286 287 287 286 286 286 286 284 284 283 284 284 284 284 284 283 284 284 284 284 284
288 286 286 286 286 286 286 285 286 288 287 284 284 282 283 284 282 282 283 280 280 282 279 278 282 280 275 280 281 283 281 280 281 281 281 282 282 282 282 283 282 283 282 281 281 281 281 281 280 281 281 281 281 281 282 282 282 282 282 283 283 283 283 283 284 285 285 286 285 285 284 284 284 284 283 283 284 283 283 282 283 283 283 283 284 284
287 289 287 289 286 285 285 284 285 289 288 285 283 283 282 281 281 279 278 281 278 279 273 278 281 277 276 279 280 281 282 281 282 282 282 282 282 282 282 282 283 282 282 281 281 281 281 280 280 280 280 280 280 281 282 281 281 281 282 282 282 282 282 282 282 283 283 283 284 283 282 282 281 282 282 282 281 281 281 281 281 282 282 282 283 283
288 288 289 287 287 287 284 284 283 286 286 284 283 283 282 280 279 278 278 276 277 272 275 280 280 281 275 280 281 281 282 281 282 281 281 282 282 283 282 282 282 282 281 281 280 280 280 280 279 280 279 279 280 280 280 281 281 280 281 281 281 281 281 282 282 282 282 282 282 282 281 281 280 280 280 281 281 281 281 281 281 281 282 282 282 283
286 287 287 286 287 285 285 284 283 283 283 285 285 281 283 282 277 276 269 274 272 270 273 276 278 281 274 277 279 280 280 280 283 283 282 282 282 282 282 282 281 281 281 280 280 280 279 280 279 279 279 279 279 280 280 280 280 281 280 281 280 280 280 281 281 281 281 281 281 281 281 281 280 280 281 280 280 280 280 280 280 281 282 282 283 283
284 286 285 287 288 288 284 284 284 283 284 284 282 283 277 272 272 271 268 273 271 272 278 277 278 279 279 281 282 283 281 280 281 282 284 283 283 282 282 282 281 280 279 280 280 280 280 279 279 279 279 279 279 279 279 280 280 280 280 280 280 279 279 280 280 280 280 280 280 280 280 281 281 280 280 280 280 280 280 280 280 280 280 281 281 282
282 281 284 287 288 288 288 285 282 282 283 283 285 279 274 271 270 266 267 263 267 272 276 278 279 277 278 281 280 281 281 281 281 281 283 284 283 283 282 281 280 280 279 279 279 279 279 279 279 279 279 279 279 279 279 279 280 279 280 279 280 279 279 279 279 279 280 280 280 279 280 280 280 280 280 280 279 280 280 280 280 280 281 281 282 282
276 279 284 287 285 287 290 290 288 283 283 284 282 284 281 273 265 268 265 272 273 273 275 276 274 270 275 280 278 280 281 280 279 280 282 283 282 282 280 280 279 279 279 279 279 279 279 279 279 279 279 279 279 279 279 279 279 279 279 279 279 279 279 278 278 279 279 279 279 279 279 280 280 280 280 280 280 279 279 279 279 280 280 280 280 281
281 280 283 285 285 287 288 286 284 284 284 281 280 282 280 280 277 277 269 266 265 270 270 272 275 276 280 280 280 279 279 280 280 280 283 282 281 280 280 281 280 280 280 279 279 279 279 279 279 279 279 279 279 279 278 279 278 279 279 278 279 279 278 279 279 278 278 278 279 278 279 279 280 281 279 279 280 279 278 278 278 278 278 279 279 279
280 279 283 285 285 286 286 285 287 286 283 282 283 279 281 282 280 271 272 270 270 269 273 268 276 279 279 280 279 279 279 279 280 280 281 281 280 279 280 280 280 280 280 279 279 279 279 279 279 279 279 279 279 278 279 279 278 278 279 279 279 278 278 279 278 278 278 278 279 278 278 278 278 278 278 278 278 278 278 278 278 278 278 278 279 279
281 278 283 284 286 287 284 285 284 284 285 283 278 282 283 283 282 280 274 269 263 269 272 270 276 277 278 275 278 279 279 279 279 279 280 280 279 280 281 281 281 281 280 279 279 279 279 279 280 279 279 278 278 278 278 279 278 278 279 278 279 279 279 279 279 279 279 279 279 279 279 279 279 278 278 278 278 278 278 278 278 278 278 278 279 279
287 281 282 283 284 286 284 287 287 286 285 282 281 283 284 279 278 279 272 271 269 267 268 271 274 275 278 281 277 279 278 280 279 279 279 279 280 280 281 281 281 280 279 279 279 279 279 279 280 279 279 279 278 279 278 279 279 279 279 279 279 279 279 279 280 279 279 279 280 280 279 279 279 279 278 277 277 278 278 278 278 278 278 278 279 279
285 281 281 285 285 286 285 285 282 283 286 286 286 285 284 283 279 276 279 275 274 269 266 271 272 275 279 281 281 283 281 281 280 279 280 281 281 281 282 282 281 281 281 280 280 279 280 280 280 279 279 279 279 279 279 278 278 278 279 279 279 279 279 279 279 279 279 278 279 279 278 278 277 278 278 278 278 278 278 278 278 278 278 278 278 278
286 285 276 281 284 284 283 283 283 284 282 282 283 281 284 278 281 278 277 275 276 266 267 271 274 274 276 279 282 284 283 282 281 281 281 281 282 282 282 282 282 282 281 280 280 280 280 280 280 279 279 280 279 280 280 280 279 280 279 279 279 279 277 278 278 278 278 278 277 277 277 277 277 277 277 277 277 277 277 278 278 277 277 277 277 277
286 283 280 279 281 281 282 282 283 283 285 285 285 283 285 280 277 276 277 278 272 274 272 268 275 278 280 281 282 281 281 283 283 283 282 282 282 283 283 283 282 282 281 281 280 279 280 280 280 280 280 280 280 281 281 282 282 281 279 278 277 277 277 277 277 277 277 277 277 277 277 276 276 276 276 276 276 276 277 277 277 277 277 277 277 277
288 284 280 276 280 284 283 284 283 283 284 283 285 284 285 283 281 276 275 277 273 277 274 273 270 280 280 280 280 280 281 283 283 282 283 283 283 284 283 283 282 282 281 281 280 280 280 280 280 281 282 282 282 282 282 281 280 279 279 279 277 277 277 277 277 277 277 277 277 276 275 275 275 275 275 275 276 276 276 276 276 277 276 276 276 277
292 284 281 280 280 280 283 283 282 283 284 286 284 280 282 283 284 284 283 281 279 276 275 273 274 280 283 281 279 279 280 281 282 282 283 284 284 283 283 282 282 281 279 280 281 280 280 280 280 280 281 281 281 280 280 279 279 279 278 277 277 277 277 277 277 277 277 277 276 275 275 275 275 275 275 275 275 275 275 276 276 276 276 276 276 275
286 286 285 279 277 277 279 283 283 284 283 281 281 281 281 281 280 279 279 278 277 277 278 277 275 280 282 279 279 280 281 281 281 282 282 283 282 282 282 282 281 280 280 280 281 281 281 281 280 281 280 280 280 279 278 279 279 278 277 277 277 277 277 277 277 276 276 276 275 275 275 275 275 275 275 275 275 275 275 275 275 275 274 275 274 274
289 286 285 280 278 276 275 275 277 281 283 282 280 281 283 285 282 282 278 276 278 275 277 275 279 283 281 280 281 280 280 281 281 281 280 280 281 282 283 282 280 280 281 281 280 280 280 281 280 280 279 279 279 279 279 279 278 277 277 277 277 277 277 277 276 276 276 275 275 275 274 275 275 275 275 275 275 274 274 274 274 273 273 273 273 273
286 285 286 286 283 281 283 280 282 283 281 281 280 282 283 282 283 283 276 275 278 275 278 281 282 280 281 282 281 281 280 282 282 281 281 281 281 282 281 281 281 281 281 280 280 280 279 279 279 279 279 279 279 278 278 278 277 276 277 276 276 276 276 276 275 276 275 275 274 274 274 274 274 274 274 274 274 274 273 272 272 272 271 272 271 271
285 284 286 285 284 285 282 280 281 285 283 283 283 281 282 282 281 282 281 279 279 275 277 283 278 277 282 282 283 281 281 279 282 281 281 281 282 282 282 281 283 280 279 278 278 278 279 280 279 279 279 278 278 277 277 276 277 277 277 276 276 275 275 276 275 275 275 274 274 274 274 274 274 274 274 273 273 272 271 271 270 270 270 269 269 269
285 285 287 285 283 285 281 282 282 284 285 285 286 286 283 282 279 280 281 281 282 282 280 283 280 281 283 284 283 283 284 284 284 284 284 283 281 280 279 279 280 280 279 278 278 279 279 279 279 279 279 278 277 277 276 276 275 275 275 275 274 275 274 274 275 274 274 274 274 273 273 273 273 272 272 271 270 270 269 269 268 268 268 268 268 268
286 283 286 284 285 286 283 282 283 283 282 281 282 284 284 282 280 282 283 283 283 284 284 281 280 282 284 282 283 285 285 284 283 282 281 281 281 279 279 279 280 280 279 278 279 279 279 279 279 279 278 277 277 277 276 276 275 275 275 275 274 274 274 274 274 273 273 273 272 272 272 271 270 270 270 269 268 267 267 266 266 266 266 266 266 266
287 282 287 283 283 283 280 278 279 279 278 279 281 281 280 279 280 281 282 282 281 281 282 281 280 280 282 280 281 280 279 280 281 280 282 281 279 279 279 280 280 279 279 279 279 279 279 278 278 278 277 277 277 277 277 277 276 275 274 274 274 274 273 273 272 272 271 272 271 270 270 269 268 268 267 267 266 264 264 265 264 263 264 263 264 264
286 282 280 280 281 281 278 279 278 278 279 278 280 283 280 279 278 280 278 280 281 280 282 281 279 280 284 280 281 280 279 281 282 282 281 279 279 279 279 279 279 279 279 279 279 278 278 278 277 277 277 277 277 277 277 276 275 274 274 273 273 273 272 271 271 271 270 270 269 269 268 267 266 265 265 264 263 263 262 261 261 261 262 261 262 263
285 281 279 278 279 280 277 278 278 277 279 277 279 281 283 281 283 278 280 280 282 283 279 278 280 285 282 279 279 279 279 280 281 280 280 280 279 279 279 280 280 279 279 279 279 278 278 278 278 278 278 277 276 277 277 276 275 274 274 273 273 271 270 270 270 269 268 268 267 267 266 265 263 263 262 262 261 261 260 260 261 260 260 260 261 261
282 282 282 283 279 276 272 275 277 276 271 277 283 285 286 282 282 279 278 279 280 282 281 284 283 280 277 278 279 280 279 279 280 281 281 281 280 278 278 279 279 279 279 278 278 279 279 278 277 277 277 276 276 276 276 275 275 274 273 272 270 269 269 269 268 267 267 266 266 265 265 264 262 262 261 261 260 260 259 259 259 260 260 260 260 260
282 283 281 279 276 271 273 274 274 269 275 279 275 276 277 281 282 281 282 282 280 281 281 280 280 278 280 280 281 281 279 277 277 278 277 279 280 279 279 279 279 278 278 278 277 277 277 277 277 276 275 275 275 274 274 273 273 272 271 270 269 268 268 267 267 266 266 265 265 264 262 263 262 260 261 260 259 258 258 259 259 259 260 259 260 260
280 281 278 275 274 272 271 274 269 272 277 276 275 275 277 276 276 276 274 276 276 278 280 280 281 280 281 281 280 276 278 277 274 274 276 276 278 280 279 279 279 278 278 278 278 278 277 277 277 277 276 275 274 273 273 273 272 270 269 268 268 267 267 266 265 265 264 264 263 262 263 261 260 259 259 260 258 258 259 259 258 258 259 258 259 258
284 281 280 276 279 270 274 272 276 278 278 278 273 274 276 275 274 274 271 275 278 278 278 278 279 280 280 279 277 273 274 275 276 277 275 274 275 278 280 280 279 279 279 278 278 278 278 278 277 277 275 274 273 273 272 271 270 269 267 266 265 265 265 265 263 264 264 262 262 262 262 262 260 259 258 258 258 257 257 259 258 258 257 257 258 258
282 282 282 279 276 275 271 270 269 271 271 278 279 277 278 277 277 276 276 270 276 272 277 277 277 279 278 276 273 273 274 275 273 277 276 275 275 276 276 277 276 277 277 276 275 275 276 276 276 275 275 273 272 271 270 269 268 267 266 265 265 264 264 263 263 263 262 262 261 262 261 261 259 258 257 256 256 256 258 257 257 256 257 257 257 257
281 282 280 281 276 272 272 271 271 270 273 279 276 275 275 275 277 275 271 267 274 271 276 277 277 277 275 275 271 273 272 268 271 276 278 276 275 275 276 276 276 275 275 275 275 276 276 276 276 274 273 272 270 269 268 267 266 266 265 265 264 263 263 263 263 262 261 262 262 261 260 259 258 258 257 256 257 256 256 256 256 257 256 257 256 257
276 275 277 275 273 274 272 271 271 274 272 275 271 274 274 274 275 274 262 263 269 273 274 275 276 276 274 275 273 273 273 268 272 276 277 277 277 276 276 277 276 276 276 275 274 275 275 275 272 271 271 271 271 268 266 265 266 265 265 264 264 263 262 263 262 262 262 261 261 259 258 258 258 257 256 257 256 255 256 256 255 255 256 256 256 256
276 274 276 273 277 276 277 273 271 272 277 273 272 274 273 273 273 263 266 268 271 272 273 276 275 276 275 272 274 271 275 278 278 278 274 274 275 276 275 275 276 276 276 275 275 277 274 274 274 273 273 272 269 266 265 265 265 265 263 263 263 262 263 262 262 261 261 261 259 258 258 257 256 255 255 255 255 256 255 255 256 256 255 255 255 255
269 271 271 275 272 274 275 273 273 276 279 274 273 275 275 274 264 267 272 273 275 273 273 275 276 275 274 274 275 277 278 278 277 275 274 274 276 275 276 275 274 274 274 274 274 274 273 272 272 270 269 267 266 265 264 265 265 263 263 262 262 262 262 261 261 260 258 258 258 257 256 255 254 255 254 254 253 253 254 254 254 255 254 255 255 254
271 270 268 273 272 270 271 270 270 267 275 276 276 274 275 270 270 274 273 274 274 275 274 274 275 275 275 275 276 277 277 275 275 275 275 274 274 275 274 274 275 275 274 273 273 272 273 271 271 270 268 266 264 264 264 263 263 262 261 262 262 261 261 261 260 259 258 257 256 255 254 253 253 254 253 253 254 253 253 254 253 253 254 254 254 254
270 264 261 267 274 267 271 268 269 277 275 277 278 274 273 277 276 275 276 275 275 274 275 275 275 275 275 276 275 275 274 274 274 274 274 274 274 274 273 273 273 274 273 273 273 273 271 272 270 268 265 264 263 263 264 263 262 261 261 262 262 261 259 259 257 256 256 255 254 253 253 252 252 253 252 252 252 251 252 253 252 253 253 254 253 253
274 270 270 268 271 269 268 273 273 272 276 278 279 277 278 280 276 276 276 277 276 275 274 275 276 276 275 276 275 275 274 274 275 276 275 275 275 274 274 274 274 274 275 274 273 271 270 271 269 267 263 263 262 262 261 261 262 260 260 261 261 260 258 256 255 254 252 251 250 251 251 250 251 251 251 251 252 252 253 253 251 253 253 253 253 253
270 272 271 269 269 272 273 274 273 273 275 277 278 277 277 278 276 274 275 275 275 276 276 276 276 275 275 275 275 273 274 275 275 275 274 274 274 274 273 273 272 272 271 270 269 269 269 267 265 264 263 262 261 261 261 261 261 261 259 260 260 258 257 255 253 252 252 251 251 252 250 250 252 251 252 252 252 253 253 253 253 253 253 253 253 253
270 271 270 270 270 269 267 273 274 275 274 276 279 279 276 276 277 277 275 276 276 275 275 276 276 276 275 275 275 276 275 275 274 275 275 274 274 274 274 274 274 274 272 272 272 268 266 265 265 264 263 263 262 261 261 260 260 260 260 259 258 257 254 252 253 254 254 254 253 251 250 250 251 252 253 251 252 252 253 253 252 252 253 253 253 252
270 274 271 271 270 270 268 271 273 273 274 276 278 278 278 279 278 276 278 278 278 276 275 276 274 273 273 273 275 275 275 275 274 274 274 274 275 275 274 273 273 272 271 271 268 267 266 266 267 265 264 264 263 262 261 260 260 259 259 259 258 255 254 255 255 255 255 254 251 251 251 251 254 255 253 252 251 252 253 252 252 252 253 253 253 253
272 274 264 269 270 271 273 273 272 273 274 275 275 276 277 278 278 276 276 276 275 274 273 273 274 275 274 275 274 274 273 274 274 275 274 275 274 274 274 274 273 273 271 269 266 266 268 267 267 266 265 266 264 262 261 260 260 258 258 259 256 255 256 256 256 255 253 251 251 250 252 252 252 252 252 252 252 252 253 253 253 254 254 256 256 256
272 271 271 269 265 264 268 272 273 267 267 274 276 277 277 278 277 276 275 273 273 273 273 274 274 272 273 274 274 273 273 275 274 273 273 274 275 275 274 273 272 270 269 268 266 266 266 266 267 266 265 264 262 261 260 259 258 257 258 257 256 256 256 256 255 252 251 251 251 250 250 252 251 250 252 251 252 252 253 257 261 260 259 259 263 267
273 275 273 271 272 266 272 275 276 277 277 276 277 278 278 277 276 275 276 276 275 275 275 274 274 273 273 273 273 274 274 275 275 273 273 273 274 274 274 273 271 269 268 265 264 263 265 265 264 263 262 262 260 260 259 258 256 255 256 257 257 256 256 256 254 253 252 252 251 252 251 251 252 252 251 252 252 252 252 253 255 261 264 265 265 267
Wind_Speed
1 4 5 8 8 8 7 11 12 3 2 2 2 2 4 5 6 3 2 5 0 1 6 5 4 4 8 3 5 5 4 8 6 6 5 4 5 5 5 6 5 6 5 4 4 6 8 10 9 7 7 7 8 10 11 12 12 11 10 11 13 9 10 10 9 9 8 8 7 10 11 10 9 9 10 12 10 12 11 12 12 12 11 11 12 12
2 3 8 9 7 10 8 5 0 1 1 1 1 2 5 3 8 3 2 2 1 3 3 0 2 7 5 4 6 4 6 8 3 5 5 5 4 4 5 5 5 2 2 6 8 9 8 9 9 7 7 9 12 11 10 11 10 9 10 11 10 9 10 10 8 6 9 6 5 8 8 9 8 9 10 9 11 11 10 12 12 11 11 12 12 10
1 8 9 11 2 3 2 4 4 5 5 0 3 2 2 7 4 8 2 2 1 2 8 2 2 7 2 4 5 7 7 4 4 3 3 4 5 4 4 4 3 5 6 5 5 6 7 8 8 7 8 8 7 7 10 8 10 11 11 10 9 9 9 9 8 8 7 6 7 7 5 7 8 7 7 8 8 9 10 12 12 11 11 11 10 10
3 5 16 3 4 3 0 3 4 2 1 4 1 1 8 3 1 6 2 2 2 1 2 1 4 8 3 3 7 5 3 3 4 5 5 4 5 4 3 2 3 5 4 6 6 7 7 7 6 7 9 8 7 8 9 10 10 9 10 10 10 10 9 9 9 7 5 6 5 7 8 9 10 7 5 8 10 11 13 14 11 11 11 12 12 12
10 3 1 4 4 6 4 2 4 4 5 2 5 5 4 2 4 8 4 2 1 0 1 0 3 8 1 3 2 2 3 4 3 5 5 5 3 2 1 3 3 3 3 4 5 6 6 7 8 8 7 5 8 9 9 9 9 7 9 9 9 9 9 8 8 8 5 6 6 5 6 6 6 9 10 12 12 10 9 10 12 11 10 11 11 10
8 7 3 4 2 2 4 2 5 7 3 2 6 10 8 6 7 4 3 2 5 2 2 1 2 3 3 2 4 2 1 3 2 5 4 3 3 2 4 3 2 2 2 2 3 4 4 4 5 7 7 8 8 9 8 6 7 7 8 8 9 9 9 9 9 8 9 10 9 10 12 12 11 12 12 11 9 10 10 9 5 11 11 10 11 10
7 2 4 6 4 3 4 4 4 7 5 1 5 7 10 6 3 2 1 3 1 1 1 1 1 4 5 2 4 3 2 3 2 2 1 1 1 1 1 1 1 1 3 3 3 4 5 6 7 7 7 6 7 6 4 5 6 7 7 7 9 9 8 8 8 8 8 12 11 12 11 9 9 10 7 4 5 6 6 7 10 9 10 11 12 11
2 1 2 2 4 5 4 7 4 9 7 4 1 3 3 3 4 4 4 5 2 1 3 1 1 4 4 7 2 5 5 3 2 1 1 1 1 1 0 0 0 1 1 2 3 3 3 5 5 5 4 5 5 4 4 6 6 8 7 8 9 8 9 8 7 10 8 11 10 11 11 10 10 10 7 5 6 6 6 10 10 9 9 10 11 11
4 1 2 3 3 5 8 4 6 8 7 3 2 4 5 6 4 4 4 3 0 1 6 4 0 1 3 5 1 4 5 3 4 5 4 3 2 2 1 1 0 0 1 1 3 3 3 4 4 3 4 3 4 4 5 5 5 5 6 7 8 10 9 8 8 9 9 9 9 9 9 11 7 7 6 5 6 7 7 11 9 10 9 10 11 11
2 2 5 7 6 7 4 2 6 11 5 1 6 7 7 7 6 4 4 4 1 1 5 4 2 3 6 5 1 1 4 5 8 8 6 5 4 4 3 2 1 0 1 1 2 2 2 2 2 2 1 3 4 4 4 4 4 5 5 8 11 10 8 6 8 9 9 8 8 11 10 11 7 6 6 6 8 7 6 9 8 7 8 8 9 10
0 4 3 4 5 5 4 0 3 4 2 7 5 6 5 7 4 2 6 2 2 2 7 7 4 4 5 5 7 6 6 4 7 2 3 3 4 4 4 3 3 1 1 1 1 1 1 1 1 2 3 3 4 3 4 5 5 4 7 7 12 7 7 7 8 8 10 8 8 9 9 9 9 6 6 9 9 7 8 9 8 7 7 7 7 7
1 1 0 2 4 4 3 3 4 1 3 6 2 3 3 1 5 3 3 4 1 6 5 1 2 1 6 6 5 5 1 2 7 10 11 9 8 7 5 4 3 2 1 0 1 1 1 3 3 2 4 3 3 3 5 5 4 6 6 7 11 8 7 7 6 8 8 8 9 8 8 10 8 8 9 10 9 8 9 8 8 6 7 8 7 8
3 6 2 4 3 8 2 7 2 2 1 4 6 5 4 3 5 2 3 2 5 5 1 2 2 0 8 8 0 3 3 2 4 3 11 12 10 8 6 5 3 1 1 1 1 0 1 2 2 3 3 3 3 4 4 5 4 5 6 6 11 8 6 6 5 8 7 8 8 7 8 8 8 9 9 9 9 6 8 7 8 9 8 7 9 9
6 2 1 3 1 4 6 6 3 1 2 4 6 5 5 0 1 3 4 1 5 4 3 0 1 3 3 7 2 4 2 2 3 5 4 8 10 10 7 5 3 2 2 3 2 2 1 1 1 1 2 2 2 4 4 4 4 4 5 5 9 6 5 4 6 6 8 8 7 6 7 7 7 8 8 7 7 6 6 6 7 7 7 7 8 8
1 3 6 7 4 3 7 8 9 5 9 7 1 7 7 8 5 4 4 5 5 5 2 4 1 6 4 4 0 4 4 3 3 5 6 5 5 5 4 4 3 3 3 3 3 3 3 2 2 2 2 2 3 3 4 4 4 4 5 5 7 7 4 5 5 5 7 7 6 6 6 7 6 8 8 7 6 6 6 5 6 5 5 6 5 5
5 5 3 3 1 2 10 0 5 5 4 0 2 5 6 7 4 3 4 3 2 1 3 1 5 4 5 0 2 1 2 1 2 1 6 8 5 4 4 5 5 4 4 4 4 3 3 3 3 2 2 2 3 3 3 4 4 5 4 4 5 5 4 4 5 5 5 5 5 6 7 7 6 6 6 6 5 5 4 4 5 4 4 4 3 3
2 3 1 3 2 1 1 1 0 2 6 3 4 4 5 1 4 4 2 2 2 3 9 2 6 4 1 0 0 1 0 1 0 2 5 7 6 4 6 6 6 6 5 5 5 4 4 3 3 3 3 3 2 3 4 4 3 4 5 5 5 4 4 4 4 4 4 5 6 6 6 6 6 6 6 6 4 4 3 3 3 4 3 2 2 3
7 5 1 3 2 0 0 0 2 4 3 8 2 7 1 2 3 3 4 1 2 4 7 3 8 3 3 6 1 0 1 2 3 4 4 5 4 6 8 7 9 9 7 4 4 4 4 4 5 4 3 3 4 4 4 4 3 3 4 4 5 4 5 3 3 4 4 5 5 5 5 5 5 5 4 4 4 2 4 4 4 4 6 7 5 5
3 3 1 0 1 2 2 1 4 2 2 3 2 3 4 2 1 1 4 4 2 4 6 4 1 5 8 6 2 6 7 8 7 5 5 8 8 10 9 10 8 5 3 5 6 6 5 5 5 5 5 4 3 3 3 3 3 2 2 2 4 5 4 4 3 3 3 3 4 4 4 4 4 4 4 3 3 4 6 6 7 7 6 6 7 7
1 4 3 1 2 0 1 3 7 3 1 1 2 2 1 1 1 4 5 2 4 5 1 7 3 9 6 6 14 11 14 11 9 8 12 13 12 12 11 10 9 8 8 7 7 7 6 6 6 6 6 5 5 4 4 4 2 3 3 4 3 3 3 3 3 3 4 3 4 4 4 4 4 4 4 4 5 6 5 4 5 5 6 6 5 5
3 2 5 1 3 1 3 4 9 11 8 2 2 2 0 1 2 3 1 4 4 4 4 4 10 3 4 4 10 11 13 14 16 16 13 12 12 12 10 10 10 10 9 8 8 8 7 6 5 5 4 5 4 3 4 4 4 4 3 4 4 5 4 4 3 4 4 4 3 4 4 3 4 4 4 5 5 6 5 5 5 4 4 4 5 4
2 2 7 1 1 4 6 2 2 3 4 8 11 10 11 7 3 4 8 3 1 3 6 3 13 5 3 2 4 2 3 12 14 14 14 12 13 13 12 10 10 9 8 7 7 6 6 6 5 5 4 4 4 4 4 4 4 4 4 3 3 4 4 4 3 3 3 2 3 5 4 4 3 3 4 4 4 5 5 5 5 4 4 5 5 5
3 3 5 4 7 8 3 0 2 1 1 1 4 6 8 4 5 4 6 5 1 3 5 3 1 10 1 1 2 3 5 9 9 8 11 13 15 14 11 9 9 8 7 7 7 7 6 6 6 6 7 6 6 5 5 4 4 4 3 1 2 4 3 2 1 1 2 3 4 3 3 3 4 3 4 5 5 5 6 5 5 5 6 6 6 6
4 2 1 2 2 3 2 0 1 1 1 1 2 2 4 7 8 9 6 4 6 2 2 1 4 5 2 0 2 2 3 4 6 10 14 13 11 10 9 9 8 6 4 4 5 5 6 6 5 5 5 5 4 4 4 4 2 1 1 2 2 2 0 0 0 1 3 4 4 3 4 5 3 5 5 5 4 6 5 6 6 5 6 5 5 6
4 3 5 1 1 2 2 1 1 1 1 3 3 2 1 1 3 2 5 2 1 9 7 7 14 8 1 2 2 3 4 5 8 7 6 8 6 6 8 7 5 4 4 6 8 8 7 6 7 7 6 5 5 4 4 4 4 1 1 1 2 1 1 0 1 2 3 3 4 4 5 5 4 6 6 5 5 6 5 5 5 5 5 5 5 5
3 3 7 8 11 10 7 7 7 7 9 2 1 1 4 8 7 3 5 3 10 2 8 6 12 2 2 1 2 2 2 3 3 4 3 3 5 8 9 6 4 5 7 7 6 6 10 9 6 5 6 5 5 6 5 4 3 3 3 1 1 1 0 1 2 3 3 3 4 4 5 4 5 5 5 5 5 5 5 6 5 5 5 5 6 6
2 0 5 9 11 12 9 1 1 5 4 6 5 7 7 4 7 6 3 4 13 3 9 11 9 1 3 3 3 4 3 7 8 6 8 8 8 7 5 4 6 6 7 8 9 7 4 4 9 8 6 6 6 5 4 5 4 4 4 2 1 1 2 2 3 3 4 4 5 4 4 5 5 5 5 5 5 5 5 5 5 6 6 6 6 6
2 1 7 7 9 9 1 2 3 6 6 5 7 7 7 8 8 12 13 12 7 2 12 6 6 4 6 5 6 5 6 5 6 5 5 6 9 7 5 4 5 4 4 3 4 7 10 10 7 7 8 7 5 4 4 4 5 5 5 4 2 2 3 3 4 4 5 5 5 5 4 4 5 5 4 4 5 5 5 5 5 5 5 5 6 5
4 5 6 4 5 6 2 2 2 3 4 4 9 11 12 13 10 15 17 7 8 12 17 7 9 6 8 8 10 11 12 14 13 14 12 5 2 3 3 4 5 6 3 5 8 8 9 8 8 8 7 7 5 6 6 4 3 3 3 3 3 3 3 3 6 5 5 5 5 4 3 4 4 3 3 4 4 4 5 5 5 5 4 4 4 5
2 4 4 2 8 8 5 3 1 6 3 1 6 12 14 14 18 19 14 13 15 11 4 2 7 10 10 4 9 12 9 5 4 0 1 2 5 5 5 6 7 6 6 7 8 10 8 8 7 8 7 6 7 7 6 5 5 5 6 4 3 4 3 5 5 5 5 5 4 3 3 4 3 3 3 4 4 4 4 4 4 4 4 5 4 4
4 4 4 3 6 9 4 1 2 4 4 6 8 9 11 4 5 9 8 2 5 4 7 5 4 12 4 6 5 1 2 1 0 4 7 5 3 4 4 5 5 5 6 7 7 7 7 7 7 6 7 8 8 8 8 6 6 5 4 4 4 4 3 4 5 4 5 5 3 3 3 3 3 3 3 4 4 3 3 5 4 3 4 4 4 6
4 4 3 2 6 5 3 6 3 2 1 4 10 17 9 8 11 9 7 7 7 9 7 6 10 12 6 5 2 2 3 5 9 10 5 4 6 6 6 7 7 8 8 8 8 6 7 8 8 8 9 8 7 7 7 7 7 6 6 5 5 4 3 4 4 5 5 4 3 3 4 3 4 4 4 3 3 3 3 3 3 3 4 4 4 4
6 4 4 3 7 8 1 3 5 4 1 6 16 22 14 11 9 2 2 5 11 7 7 9 13 10 2 4 4 5 7 8 8 5 5 6 5 6 9 9 8 8 9 9 8 8 9 10 10 10 7 5 7 8 7 8 9 8 7 7 5 5 4 4 5 5 5 3 3 3 4 4 3 2 2 2 2 3 3 3 4 4 4 5 4 4
4 7 6 5 7 1 1 4 4 5 9 16 2 3 14 16 16 11 7 10 9 9 7 9 8 1 5 5 7 10 10 8 8 9 7 7 6 7 8 7 7 8 7 7 8 9 9 6 5 6 6 6 5 5 6 6 7 7 6 6 5 5 4 5 4 5 4 3 3 3 3 3 2 2 2 2 2 3 3 3 4 4 4 4 4 4
8 9 7 4 5 4 2 5 4 11 17 2 3 6 3 4 6 13 14 11 5 8 7 8 7 4 7 9 11 8 2 3 4 5 4 7 6 7 9 10 10 8 9 8 7 7 7 7 5 4 4 5 6 6 8 6 7 8 6 6 6 4 6 4 5 4 4 3 3 3 3 4 2 3 2 2 3 3 3 3 4 4 4 4 5 6
5 6 2 1 4 4 4 7 7 9 2 3 5 5 3 8 3 2 5 7 7 9 12 11 10 8 10 12 4 1 1 2 2 5 6 5 7 8 7 9 10 9 8 9 11 10 8 8 10 11 9 5 7 6 6 8 7 8 6 5 6 5 4 5 4 4 2 3 3 3 3 2 2 2 2 3 3 3 4 3 4 5 5 4 4 3
7 4 4 4 3 5 4 9 10 4 6 3 2 2 6 5 6 6 7 7 9 11 10 7 8 12 12 6 0 1 1 1 4 7 4 8 8 7 9 9 9 11 11 9 9 10 9 8 7 6 6 7 7 8 7 7 7 7 7 6 4 4 4 4 3 3 3 3 3 2 2 1 1 1 2 3 4 3 4 4 5 4 3 5 5 5
1 8 6 7 4 7 5 3 2 3 10 6 2 1 1 3 5 3 4 6 6 2 7 9 11 16 8 1 3 2 1 2 6 9 4 6 6 7 5 4 3 5 5 5 3 2 3 4 4 4 8 9 7 6 6 7 7 8 7 5 5 4 5 4 4 3 3 3 2 1 1 1 0 1 2 3 3 4 3 3 3 3 3 5 7 7
3 1 2 7 3 4 3 6 5 6 6 2 4 4 1 1 7 4 1 7 5 6 10 12 11 8 5 6 4 4 3 2 8 9 6 5 4 6 7 7 6 5 5 6 8 8 7 7 7 7 6 7 9 7 7 7 8 8 6 5 5 4 4 4 4 4 3 3 2 1 0 0 0 1 2 3 3 3 4 4 4 4 3 4 4 6
2 2 0 1 2 4 4 4 7 3 5 2 3 1 3 3 5 5 3 8 3 8 6 7 9 8 6 5 8 7 8 7 7 9 4 8 8 8 9 8 7 7 7 4 3 4 5 7 9 6 8 10 11 8 9 7 7 6 6 6 5 4 4 5 5 4 4 2 1 0 0 0 1 1 2 3 3 3 4 4 3 4 4 5 4 6
2 1 1 7 6 8 9 5 3 6 4 2 6 4 3 2 5 5 11 7 3 5 5 7 7 8 7 8 8 7 10 9 8 3 2 2 2 3 4 5 6 5 7 6 6 7 8 9 11 14 15 11 9 9 7 7 7 6 5 6 5 5 4 4 5 4 3 2 1 0 0 1 1 3 3 3 4 3 3 3 4 4 4 6 5 5
2 3 5 1 4 8 5 6 8 6 5 6 2 9 6 4 3 9 6 3 9 7 5 9 9 6 7 11 9 9 9 10 2 1 2 4 6 4 5 4 3 2 1 2 6 6 6 7 6 4 4 5 9 8 7 7 7 5 5 5 5 4 4 5 5 4 2 1 0 0 1 2 3 3 3 3 3 3 4 3 3 4 5 5 5 7
8 7 5 7 2 4 1 6 4 10 3 11 9 3 2 4 7 5 2 0 4 7 10 8 7 6 9 8 10 10 8 2 3 5 4 3 2 5 3 4 7 8 7 5 4 6 8 8 9 9 8 6 7 8 7 8 7 6 5 6 5 4 5 5 4 3 2 1 1 1 2 3 3 4 3 3 3 4 5 4 4 4 4 5 6 6
3 4 3 3 5 6 8 8 9 6 4 11 13 8 6 9 5 5 7 5 3 5 8 8 7 8 10 10 10 8 6 5 5 4 4 4 5 5 3 3 3 2 2 5 4 7 8 8 6 6 6 7 7 7 7 9 9 7 7 8 4 5 4 4 3 3 1 1 1 2 3 3 4 4 3 4 4 4 4 5 4 4 5 5 5 6
6 9 7 7 4 9 9 8 2 2 9 10 7 5 8 9 5 8 6 8 8 6 5 6 9 8 10 9 6 7 5 6 7 6 4 6 5 5 6 8 8 8 9 9 7 5 6 10 9 8 6 6 7 6 7 6 10 8 8 4 6 5 6 5 4 3 2 3 3 3 4 3 4 4 4 4 4 4 4 4 3 5 4 4 5 5
4 1 2 3 5 3 2 4 0 1 2 8 6 4 5 5 2 4 6 4 5 6 10 9 8 8 8 7 7 4 6 6 5 6 5 6 7 7 5 4 5 6 5 3 3 7 8 4 5 8 9 6 6 7 6 6 8 10 6 5 6 6 6 5 4 4 4 4 3 4 3 4 4 4 4 4 4 4 4 4 4 5 6 5 6 5
3 2 2 4 3 1 7 1 7 7 3 6 12 9 3 2 5 5 4 5 5 6 8 7 6 9 10 9 9 8 8 7 6 8 6 5 6 7 7 8 8 8 8 9 8 7 7 7 8 10 11 12 10 9 7 7 4 5 6 8 7 6 5 5 5 4 4 4 4 3 3 4 4 4 4 3 4 4 4 4 4 4 6 6 6 6
5 4 3 6 2 5 6 4 3 3 3 6 8 8 8 11 7 5 7 6 5 3 5 6 2 2 5 7 10 7 8 7 6 7 6 7 8 7 7 8 9 6 7 6 5 8 7 9 12 12 12 13 12 9 8 7 7 7 7 6 7 6 6 6 7 6 5 6 4 4 4 4 5 5 4 4 4 5 5 4 4 5 6 7 6 6
4 4 4 4 5 3 0 0 0 2 2 5 7 9 9 7 5 5 7 6 4 4 4 3 5 6 7 8 6 7 6 8 7 8 7 8 7 6 8 9 9 9 6 6 7 10 13 12 13 13 14 12 8 9 8 8 7 7 8 8 7 8 7 8 7 5 4 4 3 5 3 4 4 4 4 5 4 5 5 5 5 6 8 8 7 8
4 7 2 3 3 3 6 6 6 2 4 7 10 13 12 12 6 5 3 3 4 6 6 6 7 5 5 5 6 7 8 9 7 6 8 10 10 9 7 7 7 6 7 7 7 9 9 9 12 11 11 6 8 9 8 7 7 6 7 6 7 8 8 7 5 5 5 4 4 4 3 4 4 3 4 4 5 5 5 8 12 9 7 7 12 17
9 11 7 8 10 4 6 8 9 10 8 7 8 9 10 6 5 7 8 9 8 8 8 7 7 6 6 8 6 8 9 9 9 6 8 8 10 9 9 7 6 6 8 6 7 7 10 10 9 7 8 9 9 10 9 8 7 6 6 7 6 8 9 8 6 5 5 4 5 5 4 4 4 4 4 4 4 4 5 6 7 11 14 14 14 14
Wind_Direction
111 137 183 210 211 200 209 199 208 228 137 119 110 125 209 228 279 288 271 256 359 328 248 243 239 256 274 339 358 5 57 66 72 76 74 61 59 49 49 45 39 43 32 343 357 8 12 15 13 6 9 12 29 28 25 32 29 28 26 32 31 14 23 34 32 35 39 42 47 51 55 58 46 46 48 47 37 43 39 32 34 35 36 34 36 31
75 161 237 229 208 196 215 220 252 77 91 163 166 193 273 179 261 241 246 353 325 157 296 100 299 272 276 14 8 12 63 48 42 80 70 72 61 54 53 48 37 19 30 17 17 12 15 16 9 6 18 19 31 18 26 32 27 29 31 39 32 23 28 31 30 39 53 43 64 87 70 75 57 45 44 43 37 40 39 37 35 35 34 34 33 28
101 203 237 237 176 101 80 164 183 200 219 157 209 240 299 264 240 282 292 341 298 124 266 6 312 275 340 34 33 47 60 58 40 54 66 81 65 54 43 44 43 46 37 21 18 14 17 14 9 15 20 25 26 23 30 25 32 30 33 32 34 31 32 29 26 37 48 49 49 69 67 71 79 61 68 65 51 46 46 42 37 36 38 36 37 29
254 276 245 227 133 161 99 88 125 110 98 196 129 155 236 216 33 299 289 4 10 102 288 358 336 290 106 75 58 37 67 86 69 68 66 58 74 70 55 37 48 46 33 31 16 16 13 17 9 20 24 14 20 29 29 26 33 32 32 30 32 33 33 30 25 31 35 59 72 70 80 73 70 67 57 64 49 39 38 35 31 34 31 31 33 28
210 215 319 136 153 165 197 141 136 150 233 258 188 206 238 206 228 188 249 316 330 64 74 43 338 306 303 158 57 76 84 83 35 54 53 40 43 52 86 55 34 53 22 28 21 19 20 21 21 22 14 8 33 32 30 25 29 36 33 31 37 39 37 37 32 32 33 57 53 57 77 78 76 47 39 39 33 32 36 38 32 26 26 31 36 33
280 259 115 70 85 139 153 176 206 147 222 306 228 203 215 215 230 260 338 10 12 331 338 109 351 302 294 290 169 189 38 47 11 61 40 31 26 26 57 38 13 23 30 43 25 15 18 21 23 26 18 28 30 32 20 19 29 35 36 37 40 44 40 34 32 35 55 58 62 56 50 45 46 46 33 34 25 25 32 36 32 36 31 32 38 35
213 320 171 210 151 146 173 198 232 159 177 82 271 199 215 214 182 172 176 95 287 168 338 28 188 265 327 306 189 160 106 89 32 48 44 23 27 38 55 41 2 11 21 27 33 23 32 21 36 25 23 16 33 20 4 24 34 38 43 43 47 49 45 35 35 36 59 65 64 70 74 74 69 76 55 48 44 52 45 52 46 41 36 35 38 36
129 345 84 74 143 162 184 234 236 160 136 224 252 131 133 143 178 200 158 177 214 257 295 23 121 215 305 291 159 148 128 120 119 188 190 184 194 177 143 343 356 11 18 27 38 32 28 42 39 29 2 14 15 357 14 37 34 43 42 49 51 50 50 39 38 50 49 77 77 79 78 74 70 71 78 52 53 51 54 56 45 42 40 39 39 37
143 179 161 171 177 177 214 203 185 165 145 216 191 133 144 159 177 126 117 139 231 13 288 316 298 315 251 257 43 172 127 194 205 190 197 193 214 210 205 232 265 354 354 41 58 33 20 31 26 4 23 354 10 15 33 34 36 39 46 56 58 54 49 39 43 56 53 67 76 82 87 82 71 79 75 73 57 56 46 59 43 45 39 38 37 36
298 199 217 163 151 216 220 245 174 167 192 218 130 95 87 81 72 108 105 95 352 66 266 260 191 239 275 271 305 267 248 208 201 194 188 205 198 202 204 216 228 334 34 23 40 27 15 9 9 340 340 24 20 14 30 38 44 47 51 59 62 52 48 40 50 58 61 61 70 75 75 85 80 73 73 67 60 54 43 57 47 44 43 36 36 32
230 321 148 123 193 208 138 70 172 205 140 130 112 75 34 46 41 36 68 94 67 251 242 228 234 185 292 259 209 163 216 187 145 124 202 216 233 236 230 217 190 184 95 54 31 13 1 338 1 357 50 30 24 23 43 50 51 53 60 63 65 50 50 46 51 59 63 62 63 75 75 79 83 73 74 67 55 50 48 51 45 43 42 41 41 36
360 42 140 252 80 90 95 71 17 24 129 131 124 131 84 28 14 44 346 37 158 265 261 257 219 170 183 288 278 228 140 171 161 175 181 194 202 202 203 213 215 212 221 16 51 59 30 45 32 33 55 41 34 43 54 55 53 58 60 69 76 55 51 50 53 65 65 68 68 73 76 76 71 71 67 64 59 44 51 48 47 36 43 36 37 37
274 228 228 318 190 129 105 80 8 18 12 84 89 66 110 252 38 304 21 253 206 211 186 4 150 106 241 228 226 205 224 215 232 211 186 182 190 195 199 204 205 206 222 192 177 170 95 101 80 78 69 64 52 65 60 56 62 64 66 70 82 63 50 54 57 70 68 71 68 72 75 75 71 68 68 66 64 43 51 47 47 40 40 29 34 27
272 270 149 243 84 210 144 138 170 94 222 114 150 139 98 176 188 246 265 247 308 290 254 221 146 267 243 284 218 223 249 220 233 237 232 197 184 183 186 188 192 219 210 205 204 204 201 180 150 157 116 104 96 76 71 68 72 72 75 72 82 76 53 60 65 68 74 67 67 68 75 73 75 72 71 66 67 54 57 52 54 48 40 40 36 26
209 327 251 144 235 169 175 191 183 161 160 210 88 148 182 143 154 232 181 206 218 199 240 263 82 229 136 224 223 241 276 289 245 234 230 203 189 179 166 165 180 212 228 214 208 208 196 206 200 161 155 141 110 97 84 82 80 83 80 77 88 83 56 65 69 70 74 71 67 68 71 76 74 77 75 71 68 64 66 53 63 54 46 51 33 32
207 228 265 293 245 152 179 245 113 102 49 194 171 74 91 233 136 229 203 158 219 320 330 201 206 185 180 163 260 279 311 344 352 215 174 176 172 154 158 185 200 208 214 204 207 217 233 226 220 206 182 158 127 120 109 97 103 98 96 91 89 94 85 73 75 73 84 84 82 72 73 73 77 82 82 74 67 64 73 70 72 64 61 56 44 19
45 273 290 329 50 99 212 161 134 135 209 211 102 191 208 157 106 76 40 35 69 46 255 145 304 302 306 307 133 323 7 328 360 165 173 174 176 168 191 202 207 211 206 204 202 202 213 220 225 207 194 170 160 136 137 141 137 128 122 114 102 98 91 85 90 92 83 83 78 68 73 73 75 77 80 86 83 84 76 87 78 76 67 61 50 22
143 236 287 106 206 338 180 199 101 43 147 97 177 231 173 138 116 134 235 4 66 208 270 98 210 254 112 273 105 354 259 265 241 197 199 185 172 190 208 205 208 207 206 197 202 206 207 206 201 206 208 191 175 168 160 159 171 156 147 136 129 129 112 115 102 88 89 91 88 90 87 86 95 99 100 102 100 93 72 48 47 40 32 26 14 16
124 284 299 324 130 303 353 103 41 1 64 150 191 207 116 208 184 302 82 272 265 255 268 287 292 262 186 229 103 239 198 214 212 203 188 201 198 205 210 215 214 217 208 204 205 205 209 203 203 195 191 199 198 194 183 172 167 151 139 147 140 132 135 127 113 106 87 94 103 101 91 90 83 80 82 76 66 52 45 34 30 30 21 12 13 11
60 163 287 331 142 223 28 103 193 204 329 53 79 94 347 121 188 125 200 192 121 266 39 287 103 244 190 214 180 201 200 186 181 190 208 203 198 200 205 206 201 206 207 197 199 201 198 204 201 190 183 186 194 191 194 178 156 154 162 135 120 104 109 101 109 121 94 73 86 70 62 52 63 61 73 56 52 44 40 32 28 23 18 9 8 10
171 134 228 304 297 85 181 183 208 169 169 114 123 236 173 22 231 106 2 140 187 188 203 269 293 275 262 207 174 197 184 182 179 189 197 198 204 210 209 199 202 205 203 197 194 194 197 200 200 200 196 195 194 189 175 174 172 173 167 161 171 144 142 105 90 71 65 67 73 81 72 62 54 49 52 54 46 50 36 28 27 20 2 1 9 3
132 163 192 163 148 221 238 252 210 186 197 174 167 192 177 131 164 189 251 73 101 133 236 167 256 278 261 162 216 217 189 180 195 182 182 195 202 206 205 206 202 203 208 194 189 187 192 195 197 201 201 200 181 188 181 188 169 169 166 152 136 112 95 102 80 90 124 121 92 64 51 43 46 42 42 64 45 47 38 24 22 12 5 18 358 8
152 128 104 191 200 204 227 249 205 185 115 192 163 222 180 177 112 129 221 230 39 251 89 190 21 268 239 253 266 232 183 199 176 166 186 194 202 202 203 203 209 206 194 185 182 189 188 188 190 190 191 192 192 188 180 175 170 151 131 113 50 73 43 56 96 115 105 86 82 77 75 65 44 46 43 50 35 34 26 19 13 12 15 6 358 358
101 112 157 298 305 314 319 342 54 105 97 33 287 74 130 190 191 204 213 171 186 152 172 330 241 264 311 53 290 232 195 170 169 185 194 197 198 199 197 205 205 205 186 177 188 186 185 188 191 188 197 199 200 195 198 196 176 179 73 41 66 82 282 288 153 116 80 71 64 60 68 54 41 54 45 47 32 34 22 21 16 9 12 360 354 350
143 233 145 129 351 339 343 327 17 15 51 210 197 213 191 56 54 75 80 45 220 213 189 138 249 252 257 351 20 89 118 155 186 210 202 201 203 202 208 211 201 180 165 188 192 188 182 189 192 198 196 196 199 203 201 190 199 120 94 140 143 192 222 288 13 74 70 70 73 52 61 49 47 49 40 38 32 27 24 22 17 10 2 356 353 348
163 180 149 196 214 223 223 192 216 226 217 210 183 191 210 176 144 125 234 176 231 205 129 203 248 239 293 15 83 96 123 187 241 223 247 241 205 205 216 205 179 179 198 196 186 173 193 195 191 193 198 200 202 195 195 190 149 143 160 165 202 193 218 37 69 85 92 83 80 60 57 47 44 42 39 33 28 27 26 21 13 5 2 359 350 349
172 176 191 209 212 229 233 199 260 91 69 181 227 177 202 199 200 193 92 174 219 183 196 228 229 192 266 136 191 193 194 193 207 200 203 217 224 222 213 190 193 200 200 197 193 191 164 184 202 198 196 201 200 197 186 169 168 161 157 145 118 103 107 96 98 94 93 84 84 75 57 49 45 42 36 31 29 27 21 16 5 5 360 354 351 349
66 208 231 231 241 244 142 177 212 170 179 212 191 226 211 190 187 188 198 227 123 118 251 215 115 159 240 193 203 200 219 236 235 205 212 229 223 202 203 202 202 211 219 188 184 179 193 202 193 193 203 201 199 179 175 175 171 168 162 146 110 92 97 102 104 98 93 91 82 74 62 50 50 44 35 36 31 28 19 7 3 1 353 350 352 354
150 220 236 187 264 257 82 337 151 187 222 203 204 209 215 209 188 201 219 207 168 209 241 219 160 204 237 216 192 201 191 200 203 207 209 199 144 161 169 185 210 224 209 201 208 201 200 196 194 199 202 197 175 179 178 162 146 120 101 107 112 107 100 112 104 97 95 88 88 82 70 65 57 49 44 43 32 26 11 2 359 351 346 351 352 348
85 262 263 186 256 266 259 221 179 208 214 188 232 228 226 205 205 209 213 207 206 228 267 90 174 216 230 202 175 212 215 202 227 246 78 207 208 174 188 212 224 227 204 203 210 208 202 197 194 200 196 187 185 184 177 168 161 157 144 138 127 112 97 95 98 107 99 97 100 92 85 82 66 53 50 41 29 18 0 355 355 348 350 356 347 341
150 260 164 161 241 250 228 101 235 202 184 229 245 246 235 211 226 228 227 207 56 324 279 242 233 260 250 152 194 314 77 137 348 230 220 213 200 211 225 243 259 265 249 234 224 210 197 197 202 197 195 195 191 187 178 172 159 146 137 139 133 122 109 104 112 105 113 114 108 100 93 86 68 59 49 35 24 6 3 357 352 352 351 350 347 346
167 254 66 132 224 248 203 177 166 76 31 234 249 244 208 157 215 205 196 192 185 212 217 235 247 252 239 130 184 184 184 199 216 227 209 199 212 212 222 235 231 232 232 228 219 196 193 200 201 202 204 199 191 182 170 159 158 151 152 146 139 129 120 118 119 118 113 111 103 95 83 73 58 45 33 24 11 2 356 348 346 350 348 342 345 342
189 152 169 190 230 233 297 140 153 104 5 298 243 237 219 210 218 77 176 198 212 191 202 223 242 241 216 138 151 229 215 225 236 234 246 239 220 208 221 227 225 225 222 220 204 200 202 202 204 203 200 191 182 180 184 160 153 163 154 146 141 122 120 119 120 117 109 106 102 91 81 67 57 45 33 21 2 350 344 348 343 348 347 347 338 327
159 171 206 175 237 151 40 133 119 148 215 236 308 163 195 215 217 204 207 210 213 173 205 213 245 111 120 164 196 231 216 218 213 230 208 205 208 221 234 231 227 221 222 216 205 203 208 205 204 200 193 184 175 166 151 154 148 141 135 129 125 127 129 123 118 116 121 119 114 100 86 69 55 37 16 7 357 355 351 353 350 340 332 330 332 335
192 197 212 152 157 182 104 119 174 215 231 25 318 350 354 250 212 216 226 237 214 220 244 267 263 221 215 211 218 233 218 219 231 221 221 215 200 204 205 216 217 212 210 203 206 214 209 201 187 167 164 162 151 142 136 128 131 129 124 130 126 131 128 127 128 128 140 133 107 89 71 52 38 18 359 353 357 356 350 345 334 338 336 336 330 329
179 184 134 34 112 50 124 182 218 234 21 302 1 351 22 79 63 97 308 273 231 217 217 226 242 237 239 241 242 94 182 224 255 246 229 226 204 198 195 209 213 201 202 205 201 208 193 189 186 186 181 146 143 148 151 146 141 132 134 130 132 136 135 135 128 134 134 110 88 72 59 48 28 359 347 344 350 352 340 337 331 331 326 322 313 298
188 114 151 203 177 173 206 197 236 6 318 218 10 265 167 150 178 158 227 258 222 212 201 205 224 248 241 252 119 80 64 43 331 283 220 211 210 209 200 210 195 201 204 210 198 203 198 190 182 169 141 153 157 155 155 144 137 131 131 131 139 135 142 133 137 149 130 112 99 80 74 43 24 339 339 344 343 336 329 328 324 322 317 314 308 310
270 194 194 194 232 142 157 209 309 275 250 236 198 232 66 161 134 172 142 281 280 226 183 177 211 232 242 173 108 123 76 41 305 279 229 216 201 201 231 238 235 215 213 204 191 196 161 154 127 140 156 155 157 155 143 144 142 138 138 148 150 145 150 147 164 151 132 123 114 104 95 41 19 333 332 331 321 314 307 307 299 300 311 309 311 309
354 53 305 215 206 78 182 211 213 204 254 156 198 172 199 148 127 104 79 276 259 188 199 178 208 231 213 168 169 129 100 196 250 255 253 217 205 197 199 223 214 217 208 194 183 182 177 172 161 149 139 148 162 166 154 149 145 143 154 159 162 159 162 177 166 158 145 137 121 126 115 88 4 324 312 304 299 302 303 305 300 298 297 286 290 292
44 351 23 358 187 207 147 223 226 228 228 286 180 221 204 154 124 76 332 275 260 197 186 164 198 212 198 176 147 153 157 200 243 255 213 196 201 193 189 206 214 222 228 204 219 188 152 132 122 141 159 181 187 157 158 153 150 154 158 167 156 166 188 187 166 147 125 127 125 124 119 22 324 304 298 293 298 296 286 289 299 297 302 297 289 294
185 298 176 219 228 227 229 259 355 287 261 174 171 152 159 150 82 102 230 233 233 190 190 180 197 204 168 151 163 167 224 200 207 214 107 156 114 211 225 222 215 204 209 200 194 148 152 170 172 180 190 187 158 156 158 152 147 164 164 159 163 198 193 157 137 129 131 121 121 170 193 306 293 288 285 274 278 283 288 286 291 301 298 298 298 292
343 89 327 339 223 238 246 256 242 271 237 153 267 150 173 93 213 212 236 198 151 195 196 192 198 198 163 174 186 204 219 227 235 38 156 171 197 210 205 187 143 110 86 134 151 159 163 173 186 166 140 145 153 157 156 154 157 161 160 161 199 198 144 140 134 126 122 133 170 206 298 289 287 270 265 278 283 287 282 272 278 286 291 289 294 295
194 140 209 201 216 56 115 245 279 260 263 124 134 55 290 153 239 191 155 272 187 174 173 207 203 201 170 202 209 210 229 268 229 240 248 226 239 260 233 173 179 187 178 150 164 194 168 172 190 193 171 147 154 157 162 152 158 164 164 188 208 154 143 134 132 127 136 149 221 263 280 282 275 279 279 281 274 276 283 287 295 290 289 290 291 288
213 103 247 263 182 170 194 206 213 229 127 163 142 177 214 210 188 154 131 189 209 166 183 184 215 199 192 192 203 227 238 252 287 258 258 262 242 254 251 229 228 212 209 226 210 183 179 189 178 165 153 159 162 165 165 162 161 170 178 208 150 143 132 130 124 125 133 196 249 272 279 269 273 271 272 272 276 277 281 291 289 285 280 279 283 289
214 190 179 191 213 157 199 213 217 178 165 195 177 186 204 209 152 181 154 170 175 227 192 183 204 200 197 194 197 192 216 225 227 236 213 242 240 233 231 224 212 212 209 204 207 179 185 193 182 164 159 171 172 172 170 172 163 170 193 190 147 151 148 142 131 141 194 226 243 253 252 269 266 270 268 265 259 272 280 287 282 290 275 276 282 278
300 147 161 82 261 268 272 180 139 13 201 202 241 218 209 228 184 152 175 159 223 189 170 188 209 190 193 189 175 218 207 225 221 245 232 238 238 243 234 240 242 233 223 191 173 174 186 160 147 162 175 184 186 179 179 180 166 173 198 152 153 146 148 145 149 173 214 227 232 240 251 271 279 270 264 265 258 251 256 263 274 273 283 276 272 266
242 131 120 195 270 106 263 97 154 196 199 200 214 234 248 257 217 198 212 223 210 180 200 217 193 187 184 174 186 197 218 218 224 241 242 244 241 238 228 223 234 222 210 209 207 149 158 166 170 185 186 193 195 186 182 173 175 160 141 155 149 146 145 153 169 190 210 227 231 242 238 243 268 279 276 265 258 255 257 254 253 258 270 268 270 269
311 176 134 232 222 185 244 216 235 333 247 222 214 221 243 244 236 211 220 227 226 190 196 205 154 153 149 176 198 193 224 219 205 235 239 236 237 236 228 227 233 240 230 211 170 171 169 181 193 196 193 202 193 181 171 171 171 155 147 149 150 148 152 170 181 194 210 219 215 231 229 239 253 257 268 268 263 273 277 258 239 247 256 260 257 260
182 116 222 181 194 252 257 279 267 340 324 262 245 240 240 242 235 228 225 234 234 203 217 210 207 190 177 202 182 196 222 244 217 219 228 240 242 236 229 226 223 224 211 183 191 176 189 194 199 202 198 204 170 171 173 177 168 162 158 153 155 155 167 174 179 196 210 217 214 238 234 232 241 245 255 269 262 250 242 261 265 261 261 250 233 234
94 234 194 90 244 216 182 213 153 151 249 241 230 232 234 236 217 232 237 241 228 218 215 210 238 225 213 211 179 186 211 240 233 207 225 233 234 235 232 230 225 214 211 204 176 193 200 201 200 199 198 182 162 176 177 177 172 169 167 160 160 160 170 178 185 193 218 212 216 236 235 242 245 242 248 253 268 276 279 255 262 260 252 256 266 263
186 220 136 206 223 232 239 218 194 211 236 231 215 224 228 229 185 217 233 231 232 224 211 198 226 248 241 241 206 197 220 226 239 206 221 236 239 231 228 224 216 212 208 177 169 195 203 204 196 185 185 181 169 179 179 175 173 170 172 162 164 164 172 164 183 201 215 212 226 225 230 232 247 251 251 254 259 269 282 301 294 290 284 279 279 281